[[{"header":{"parameterUnit":"m.s-1","parameterCategory":1,"la1":30.2992,"la2":30.254,"lo1":-89.0895,"lo2":-89.0443,"dy":0.0025,"dx":0.0025,"nx":19,"ny":19,"refTime":"2026-05-03T03:00:00:Z","depth":0,"parameterNumber":2,"parameterNumberName":"U-component_of_WINDS"},"data":[0,0,0,-2.6626,-2.6627,-2.6678,-2.6678,-2.6763,-2.6764,0,0,0,0,0,0,0,0,0,0,0,-2.6622,-2.6623,-2.6626,-2.6627,-2.6678,-2.6678,-2.6763,-2.6764,0,0,0,0,0,0,0,0,0,0,0,-2.6622,-2.6623,-2.6624,-2.6628,-2.6678,-2.6678,-2.6762,-2.6717,0,0,0,0,0,0,0,0,0,0,-2.6665,-2.6672,-2.6623,-2.6624,-2.6628,-2.6678,-2.6678,-2.6715,-2.672,-2.6748,0,-2.6775,0,-2.6771,-2.6771,-2.6771,0,0,0,-2.6619,-2.6668,-2.6671,-2.6624,-2.6629,-2.6678,-2.6653,-2.6718,-2.6724,-2.6756,-2.6776,-2.6779,-2.6772,-2.6771,-2.6772,-2.696,-2.6961,0,0,-2.6616,-2.6637,-2.6667,-2.6676,-2.6668,-2.6651,-2.6654,-2.6721,-2.6745,-2.6777,-2.6781,-2.6774,-2.6772,-2.6773,-2.6959,-2.6961,0,0,0,-2.6614,-2.6636,-2.6637,-2.6673,-2.668,-2.6653,-2.6657,-2.6742,-2.6741,-2.6781,-2.6775,-2.6773,-2.6774,-2.6958,-2.696,-2.7044,0,0,0,-2.6612,-2.6634,-2.6636,-2.665,-2.6679,-2.6712,-2.6677,-2.6737,-2.6743,-2.6774,-2.6773,-2.6775,-2.6956,-2.6959,-2.7038,-2.7081,0,0,0,-2.6615,-2.6635,-2.6646,-2.6651,-2.6673,-2.671,-2.6712,-2.6737,-2.674,-2.6771,-2.6775,-2.6955,-2.6958,-2.7034,-2.7073,-2.7139,0,0,0,-2.6625,-2.6719,-2.6647,-2.675,-2.6673,-2.6761,-2.6712,-2.6776,-2.6813,-2.6773,-2.6956,-2.6959,-2.7032,-2.7068,-2.7134,-2.7199,-2.7228,0,0,-2.6756,-2.6735,-2.6794,-2.6732,-2.6838,-2.6752,-2.6871,-2.6884,-2.6868,-2.6931,-2.6935,-2.704,-2.7072,-2.7137,-2.7377,-2.74,0,0,0,-2.6843,-2.6886,-2.6909,-2.6945,-2.6958,-2.6973,-2.6965,-2.6971,-2.7023,-2.6904,-2.708,-2.7098,-2.7135,-2.7166,-2.7186,-2.7218,-2.6974,-2.6973,-2.6973,-2.706,-2.7034,-2.713,-2.7111,-2.7146,-2.7138,-2.7165,-2.7171,-2.7134,-2.7176,-2.7195,-2.7343,-2.738,-2.7394,-2.7428,-2.7226,-2.7226,-2.7226,-2.7226,-2.7251,-2.7309,-2.7258,-2.7333,-2.7305,-2.7369,-2.7365,-2.7337,-2.7393,-2.7326,-2.7358,-2.729,-2.742,-2.7449,-2.7232,-2.7231,-2.7231,-2.723,-2.723,-2.7393,-2.7416,-2.742,-2.747,-2.7512,-2.7488,-2.7545,-2.7517,-2.7491,-2.7522,-2.7541,-2.754,-2.7537,-2.7533,-2.7533,-2.7534,-2.7534,-2.7534,-2.7535,-2.7539,-2.7541,-2.7591,-2.7613,-2.7633,-2.7656,-2.765,-2.7669,-2.7684,-2.7659,-2.7659,-2.762,-2.7437,-2.7393,-2.7543,-2.7541,-2.754,-2.7539,-2.7539,-2.7747,-2.7695,-2.7774,-2.7795,-2.7818,-2.7863,-2.7826,-2.7868,-2.788,-2.7909,-2.7863,-2.7731,-2.7709,-2.7693,-2.7657,-2.7866,-2.7866,-2.7866,-2.7866,-2.7869,-2.7854,-2.7929,-2.7964,-2.7994,-2.7969,-2.8061,-2.8057,-2.8045,-2.8051,-2.8016,-2.7965,-2.795,-2.7937,-2.7916,-2.7882,-2.8143,-2.8144,-2.8144,-2.7997,-2.7984,-2.8067,-2.8054,-2.8071,-2.8086,-2.8173,-2.8216,-2.8191,-2.8154,-2.8056,-2.8044,-2.7961,-2.7935,-2.7899,-2.7867,-2.7804,0,0]},{"header":{"parameterUnit":"m.s-1","parameterCategory":1,"la1":30.2992,"la2":30.254,"lo1":-89.0895,"lo2":-89.0443,"dy":0.0025,"dx":0.0025,"nx":19,"ny":19,"refTime":"2026-05-03T03:00:00:Z","depth":0,"parameterNumber":3,"parameterNumberName":"V-component_of_WINDS"},"data":[0,0,0,-1.9566,-1.9566,-1.9567,-1.9567,-1.9584,-1.9584,0,0,0,0,0,0,0,0,0,0,0,-1.9575,-1.9575,-1.9566,-1.9566,-1.9567,-1.9567,-1.9584,-1.9584,0,0,0,0,0,0,0,0,0,0,0,-1.9574,-1.9575,-1.9575,-1.9566,-1.9567,-1.9567,-1.9584,-1.9577,0,0,0,0,0,0,0,0,0,0,-1.9574,-1.9591,-1.9575,-1.9575,-1.9566,-1.9567,-1.9567,-1.9577,-1.9578,-1.959,0,-1.9603,0,-1.9594,-1.9586,-1.9586,0,0,0,-1.9559,-1.959,-1.9582,-1.9575,-1.9566,-1.9567,-1.9564,-1.9577,-1.9578,-1.9591,-1.9603,-1.9603,-1.9594,-1.9586,-1.9586,-1.9679,-1.9679,0,0,-1.9559,-1.958,-1.9581,-1.9583,-1.9584,-1.9564,-1.9565,-1.9578,-1.9592,-1.9603,-1.9603,-1.9594,-1.9586,-1.9587,-1.9678,-1.9679,0,0,0,-1.9563,-1.958,-1.9571,-1.9583,-1.9582,-1.9565,-1.9565,-1.9591,-1.9586,-1.9603,-1.9594,-1.9587,-1.9587,-1.9677,-1.9678,-1.9736,0,0,0,-1.9563,-1.9582,-1.9572,-1.9584,-1.9582,-1.9586,-1.9578,-1.9586,-1.9586,-1.9594,-1.9587,-1.9587,-1.9676,-1.9678,-1.9733,-1.976,0,0,0,-1.9571,-1.9583,-1.9587,-1.9585,-1.9586,-1.9586,-1.9582,-1.9585,-1.9581,-1.9586,-1.9587,-1.9676,-1.9677,-1.973,-1.9755,-1.9792,0,0,0,-1.9586,-1.9638,-1.9588,-1.9642,-1.9587,-1.9621,-1.9581,-1.9606,-1.9617,-1.9587,-1.9676,-1.9678,-1.9729,-1.9752,-1.9788,-1.9827,-1.9844,0,0,-1.9663,-1.9648,-1.9678,-1.9633,-1.9682,-1.9619,-1.9676,-1.9667,-1.9648,-1.967,-1.9672,-1.9734,-1.9755,-1.9791,-1.9933,-1.9947,0,0,0,-1.9709,-1.9731,-1.9739,-1.975,-1.9744,-1.9741,-1.9721,-1.9717,-1.9734,-1.9663,-1.9755,-1.9767,-1.9787,-1.9805,-1.9817,-1.9834,-1.9687,-1.9686,-1.9686,-1.9848,-1.9821,-1.9869,-1.9843,-1.9854,-1.9833,-1.984,-1.9831,-1.9801,-1.9823,-1.983,-1.9919,-1.994,-1.9949,-1.9967,-1.9847,-1.9847,-1.9847,-1.9847,-1.9958,-1.9986,-1.9944,-1.9976,-1.9948,-1.9975,-1.9956,-1.9934,-1.9955,-1.9912,-1.9928,-1.9885,-1.9966,-1.998,-1.9851,-1.9851,-1.985,-1.985,-1.9849,-2.0047,-2.0056,-2.005,-2.0064,-2.0078,-2.0049,-2.0072,-2.0044,-2.0019,-2.0036,-2.0041,-2.004,-2.0036,-2.004,-2.004,-2.004,-2.004,-2.0041,-2.0041,-2.0143,-2.0134,-2.0157,-2.0154,-2.0158,-2.016,-2.0138,-2.0142,-2.0138,-2.0117,-2.0117,-2.0086,-1.9978,-1.9952,-2.0046,-2.0045,-2.0044,-2.0044,-2.0043,-2.0267,-2.0235,-2.0269,-2.0273,-2.0268,-2.0284,-2.0249,-2.0258,-2.0257,-2.0269,-2.0234,-2.0158,-2.0141,-2.0131,-2.011,-2.0238,-2.0238,-2.0238,-2.0238,-2.0344,-2.0332,-2.0361,-2.037,-2.0374,-2.0346,-2.0387,-2.0371,-2.0349,-2.0347,-2.0324,-2.0293,-2.0284,-2.0272,-2.0259,-2.0239,-2.0398,-2.0398,-2.0398,-2.042,-2.0407,-2.0447,-2.0425,-2.0419,-2.0415,-2.0453,-2.0464,-2.0433,-2.0404,-2.0345,-2.0338,-2.0288,-2.0272,-2.0244,-2.0225,-2.0187,0,0]}]]